TimeCDT,TemperatureF,Dew PointF,Humidity,Sea Level PressureIn,VisibilityMPH,Wind Direction,Wind SpeedMPH,Gust SpeedMPH,PrecipitationIn,Events,Conditions,WindDirDegrees,DateUTC
12:15 AM,72.0,39.2,30,30.09,10.0,SSW,10.4,-,N/A,,Clear,200,2013-05-14 05:15:00
12:35 AM,71.1,39.4,32,30.09,10.0,SSW,12.7,-,N/A,,Clear,200,2013-05-14 05:35:00
12:55 AM,70.7,39.6,32,30.09,10.0,SSW,11.5,-,N/A,,Clear,200,2013-05-14 05:55:00
1:15 AM,70.0,39.4,33,30.09,10.0,South,10.4,-,N/A,,Clear,190,2013-05-14 06:15:00
1:35 AM,68.0,39.9,36,30.09,10.0,South,8.1,-,N/A,,Clear,190,2013-05-14 06:35:00
1:55 AM,66.7,40.3,38,30.09,10.0,South,9.2,-,N/A,,Clear,190,2013-05-14 06:55:00
2:15 AM,66.6,40.1,38,30.09,10.0,SSW,10.4,-,N/A,,Clear,200,2013-05-14 07:15:00
2:35 AM,66.2,39.9,38,30.09,10.0,South,10.4,-,N/A,,Clear,190,2013-05-14 07:35:00
2:55 AM,65.5,40.6,40,30.08,10.0,SSW,9.2,-,N/A,,Clear,200,2013-05-14 07:55:00
3:15 AM,64.0,41.9,44,30.08,10.0,SSW,8.1,-,N/A,,Clear,200,2013-05-14 08:15:00
3:35 AM,62.8,42.6,48,30.08,10.0,South,6.9,-,N/A,,Clear,190,2013-05-14 08:35:00
3:55 AM,63.5,43.2,47,30.08,10.0,SSW,6.9,-,N/A,,Clear,200,2013-05-14 08:55:00
4:15 AM,63.1,43.7,49,30.08,10.0,SSW,5.8,-,N/A,,Clear,200,2013-05-14 09:15:00
4:35 AM,62.2,43.7,51,30.08,10.0,South,5.8,-,N/A,,Clear,180,2013-05-14 09:35:00
4:55 AM,62.1,43.9,51,30.08,10.0,South,4.6,-,N/A,,Clear,190,2013-05-14 09:55:00
5:15 AM,61.9,44.1,52,30.08,10.0,SSW,4.6,-,N/A,,Clear,200,2013-05-14 10:15:00
5:35 AM,62.1,44.1,52,30.09,10.0,SSW,4.6,-,N/A,,Clear,200,2013-05-14 10:35:00
5:55 AM,61.3,44.8,55,30.09,10.0,South,3.5,-,N/A,,Clear,190,2013-05-14 10:55:00
6:15 AM,61.2,44.8,55,30.09,10.0,SSW,3.5,-,N/A,,Clear,200,2013-05-14 11:15:00
6:35 AM,60.8,45.5,57,30.10,10.0,SSW,5.8,-,N/A,,Clear,200,2013-05-14 11:35:00
6:55 AM,60.4,45.9,59,30.10,10.0,SSW,3.5,-,N/A,,Clear,200,2013-05-14 11:55:00
7:15 AM,59.9,46.4,61,30.10,10.0,SSW,3.5,-,N/A,,Clear,200,2013-05-14 12:15:00
7:35 AM,61.7,46.9,58,30.10,10.0,SSW,4.6,-,N/A,,Clear,200,2013-05-14 12:35:00
7:55 AM,63.5,47.8,57,30.10,10.0,SW,3.5,-,N/A,,Clear,230,2013-05-14 12:55:00
8:15 AM,65.5,47.1,51,30.11,10.0,WSW,4.6,-,N/A,,Clear,240,2013-05-14 13:15:00
8:35 AM,67.8,46.9,47,30.11,10.0,WSW,6.9,-,N/A,,Clear,240,2013-05-14 13:35:00
8:55 AM,70.5,46.9,43,30.11,10.0,WSW,9.2,-,N/A,,Clear,250,2013-05-14 13:55:00
9:15 AM,73.0,47.3,40,30.10,10.0,WSW,11.5,-,N/A,,Clear,250,2013-05-14 14:15:00
9:35 AM,75.7,47.7,37,30.10,10.0,WSW,13.8,19.6,N/A,,Clear,240,2013-05-14 14:35:00
10:15 AM,79.2,48.6,34,30.10,10.0,WSW,19.6,23.0,N/A,,Clear,250,2013-05-14 15:15:00
10:35 AM,80.8,49.1,33,30.10,10.0,WSW,17.3,-,N/A,,Clear,240,2013-05-14 15:35:00
10:55 AM,81.7,49.3,32,30.09,10.0,WSW,13.8,-,N/A,,Clear,250,2013-05-14 15:55:00
11:15 AM,83.3,49.1,30,30.09,10.0,WSW,16.1,20.7,N/A,,Clear,240,2013-05-14 16:15:00
11:35 AM,84.6,48.2,28,30.09,10.0,WSW,16.1,23.0,N/A,,Clear,240,2013-05-14 16:35:00
11:55 AM,85.1,48.2,28,30.08,10.0,SW,18.4,-,N/A,,Clear,220,2013-05-14 16:55:00
12:15 PM,86.9,47.7,26,30.08,10.0,SW,18.4,25.3,N/A,,Clear,230,2013-05-14 17:15:00
12:35 PM,87.3,46.9,25,30.06,10.0,SSW,18.4,25.3,N/A,,Clear,210,2013-05-14 17:35:00
12:55 PM,87.8,45.7,23,30.05,10.0,SSW,21.9,27.6,N/A,,Clear,210,2013-05-14 17:55:00
1:15 PM,88.5,46.0,23,30.04,10.0,SSW,21.9,29.9,N/A,,Clear,200,2013-05-14 18:15:00
1:35 PM,88.9,43.5,21,30.04,10.0,South,18.4,25.3,N/A,,Clear,190,2013-05-14 18:35:00
1:55 PM,89.4,43.0,20,30.03,10.0,SSW,16.1,-,N/A,,Clear,210,2013-05-14 18:55:00
2:15 PM,89.8,42.8,19,30.02,10.0,South,18.4,24.2,N/A,,Clear,190,2013-05-14 19:15:00
2:35 PM,90.0,42.4,19,30.01,10.0,South,16.1,26.5,N/A,,Clear,190,2013-05-14 19:35:00
2:55 PM,90.9,42.4,19,30.00,10.0,South,15.0,26.5,N/A,,Clear,180,2013-05-14 19:55:00
3:15 PM,91.6,41.9,18,29.99,10.0,South,15.0,26.5,N/A,,Clear,190,2013-05-14 20:15:00
3:35 PM,91.6,42.1,18,29.98,10.0,South,16.1,20.7,N/A,,Clear,170,2013-05-14 20:35:00
3:55 PM,92.1,42.3,18,29.97,10.0,South,21.9,28.8,N/A,,Clear,190,2013-05-14 20:55:00
4:35 PM,92.7,44.4,19,29.95,10.0,SSW,24.2,32.2,N/A,,Clear,200,2013-05-14 21:35:00
4:55 PM,91.6,44.6,20,29.94,10.0,SSW,19.6,27.6,N/A,,Clear,200,2013-05-14 21:55:00
5:15 PM,91.9,44.6,19,29.93,10.0,South,17.3,-,N/A,,Clear,180,2013-05-14 22:15:00
5:35 PM,91.9,45.1,20,29.92,10.0,South,23.0,-,N/A,,Clear,190,2013-05-14 22:35:00
5:55 PM,91.8,46.4,21,29.92,10.0,South,21.9,-,N/A,,Clear,190,2013-05-14 22:55:00
6:15 PM,91.2,47.8,22,29.91,10.0,SSW,21.9,25.3,N/A,,Clear,200,2013-05-14 23:15:00
6:35 PM,90.5,48.7,24,29.91,10.0,South,21.9,27.6,N/A,,Clear,180,2013-05-14 23:35:00
7:15 PM,89.6,49.5,25,29.89,10.0,South,17.3,20.7,N/A,,Scattered Clouds,180,2013-05-15 00:15:00
7:35 PM,88.7,49.5,26,29.89,10.0,South,18.4,23.0,N/A,,Scattered Clouds,190,2013-05-15 00:35:00
7:55 PM,87.4,50.2,28,29.88,10.0,South,16.1,21.9,N/A,,Clear,180,2013-05-15 00:55:00
8:15 PM,86.0,51.1,30,29.88,10.0,South,13.8,-,N/A,,Clear,170,2013-05-15 01:15:00
8:35 PM,84.6,51.6,32,29.88,3.0,South,12.7,-,N/A,,Haze,170,2013-05-15 01:35:00
8:55 PM,82.4,52.7,36,29.88,4.0,SSE,11.5,-,N/A,,Haze,160,2013-05-15 01:55:00
9:15 PM,80.6,53.6,39,29.89,10.0,SSE,12.7,-,N/A,,Clear,150,2013-05-15 02:15:00
9:35 PM,79.3,54.0,41,29.90,10.0,SSE,12.7,-,N/A,,Clear,160,2013-05-15 02:35:00
9:55 PM,79.7,54.5,42,29.91,10.0,SSE,13.8,-,N/A,,Clear,160,2013-05-15 02:55:00
10:15 PM,79.2,54.9,43,29.92,10.0,SSE,12.7,-,N/A,,Clear,150,2013-05-15 03:15:00
10:35 PM,79.0,54.7,43,29.92,10.0,SSE,13.8,-,N/A,,Clear,150,2013-05-15 03:35:00
10:55 PM,79.9,53.8,40,29.93,10.0,South,15.0,-,N/A,,Clear,170,2013-05-15 03:55:00
11:15 PM,80.8,53.8,39,29.93,5.0,SSW,24.2,31.1,N/A,,Haze,210,2013-05-15 04:15:00
11:35 PM,78.3,54.0,43,29.94,10.0,SSW,13.8,-,N/A,,Clear,200,2013-05-15 04:35:00
11:55 PM,76.3,50.2,40,29.95,10.0,SW,9.2,-,N/A,,Clear,220,2013-05-15 04:55:00